�N����,����,�~����,�C��,���x,�C��,����,���ϕ���,�ő�u�ԕ���,�ő厞����,���˗�,�I�_���x,�n�����x,�ő啗���N��,DTYPE
"21/03/27","00:10",0.0,6.7,87.0,1018.5,319.9,3.1,4.8,320.5,0.00,4.7,130.0,"00:00:08",1
"21/03/27","00:20",0.0,6.5,87.3,1018.2,339.5,1.1,2.6,309.3,0.00,4.6,130.0,"00:17:36",1
"21/03/27","00:30",0.0,6.5,87.7,1018.0,320.4,2.7,4.3,308.4,0.00,4.6,130.0,"00:27:28",1
"21/03/27","00:40",0.0,6.4,87.8,1018.2,295.7,1.3,3.3,301.1,0.00,4.6,130.0,"00:39:52",1
"21/03/27","00:50",0.0,6.7,88.0,1017.8,324.8,3.6,5.9,334.4,0.00,4.9,130.0,"00:49:04",1
"21/03/27","01:00",0.0,7.0,87.7,1017.8,314.7,4.7,6.6,326.6,0.00,5.1,130.0,"00:55:44",1
"21/03/27","01:10",0.0,6.7,87.6,1018.0,284.3,3.5,5.2,309.4,0.00,4.8,130.0,"01:00:56",1
"21/03/27","01:20",0.0,7.0,87.4,1017.8,315.0,4.7,6.4,337.5,0.00,5.1,130.0,"01:17:52",1
"21/03/27","01:30",0.0,6.9,87.1,1017.8,330.7,4.0,6.3,329.4,0.00,4.9,130.0,"01:20:16",1
"21/03/27","01:40",0.0,7.0,86.8,1017.8,315.9,3.9,5.2,332.1,0.00,5.0,130.0,"01:37:20",1
"21/03/27","01:50",0.0,6.9,86.5,1017.5,303.9,3.5,4.5,327.5,0.00,4.8,130.0,"01:41:36",1
"21/03/27","02:00",0.0,6.6,86.6,1017.3,292.1,3.4,5.0,302.3,0.00,4.6,130.0,"01:57:04",1
"21/03/27","02:10",0.0,6.8,86.5,1017.1,321.0,4.4,5.6,331.2,0.00,4.7,130.0,"02:07:04",1
"21/03/27","02:20",0.0,6.8,86.4,1017.5,320.0,4.2,6.2,337.3,0.00,4.7,130.0,"02:12:00",1
"21/03/27","02:30",0.0,6.7,86.6,1017.1,314.7,3.4,5.9,332.9,0.00,4.7,130.0,"02:29:04",1
"21/03/27","02:40",0.0,6.7,86.9,1017.3,325.4,4.9,6.8,333.8,0.00,4.7,130.0,"02:39:44",1
"21/03/27","02:50",0.0,6.4,87.2,1017.1,328.5,3.6,6.6,319.1,0.00,4.5,130.0,"02:40:16",1
"21/03/27","03:00",0.0,6.3,87.4,1017.1,306.6,3.6,5.5,333.2,0.00,4.4,130.0,"02:54:48",1
"21/03/27","03:10",0.0,6.0,87.7,1016.8,308.2,4.2,6.0,316.8,0.00,4.2,130.0,"03:09:36",1
"21/03/27","03:20",0.0,6.1,87.7,1016.6,320.3,4.7,6.2,332.9,0.00,4.3,130.0,"03:12:56",1
"21/03/27","03:30",0.0,6.1,87.7,1016.8,327.2,4.0,6.2,334.8,0.00,4.3,130.0,"03:20:56",1
"21/03/27","03:40",0.0,6.1,87.8,1016.8,321.5,4.0,5.1,333.9,0.00,4.3,130.0,"03:31:04",1
"21/03/27","03:50",0.0,5.9,87.8,1016.6,326.1,3.1,4.2,323.2,0.00,4.1,130.0,"03:41:28",1
"21/03/27","04:00",0.0,5.5,87.9,1016.6,321.3,2.3,3.2,319.5,0.00,3.7,130.0,"03:50:40",1
"21/03/27","04:10",0.0,5.9,88.4,1016.8,323.7,4.0,7.1,314.7,0.00,4.2,130.0,"04:08:34",1
"21/03/27","04:20",0.0,5.8,88.5,1016.6,324.2,3.4,5.4,310.3,0.00,4.1,130.0,"04:12:16",1
"21/03/27","04:30",0.0,5.6,88.7,1016.6,316.2,2.7,5.5,324.1,0.00,3.9,130.0,"04:20:48",1
"21/03/27","04:40",0.0,5.5,89.2,1016.8,320.8,2.8,4.4,325.8,0.00,3.9,130.0,"04:39:04",1
"21/03/27","04:50",0.0,5.6,89.4,1016.8,321.4,3.4,5.5,321.8,0.00,4.0,130.0,"04:42:32",1
"21/03/27","05:00",0.0,5.1,89.7,1017.3,330.6,2.3,3.5,341.1,0.00,3.6,130.0,"04:56:32",1
"21/03/27","05:10",0.0,4.9,90.0,1017.3,321.0,3.1,4.3,327.9,0.00,3.4,130.0,"05:05:52",1
"21/03/27","05:20",0.0,4.8,90.2,1017.3,318.4,3.4,4.2,333.3,0.00,3.4,130.0,"05:12:48",1
"21/03/27","05:30",0.0,4.6,90.4,1017.1,321.8,3.4,4.3,323.7,0.00,3.2,130.0,"05:23:12",1
"21/03/27","05:40",0.0,4.6,90.7,1017.1,322.1,3.4,4.9,319.3,0.00,3.3,130.0,"05:36:00",1
"21/03/27","05:50",0.0,4.6,90.7,1017.1,322.5,3.5,4.4,317.9,0.00,3.3,130.0,"05:48:16",1
"21/03/27","06:00",0.0,4.3,90.7,1017.3,283.7,1.8,2.6,306.3,0.00,3.0,130.0,"05:58:32",1
"21/03/27","06:10",0.0,4.1,91.0,1017.3,324.4,2.0,2.8,330.1,0.00,2.8,130.0,"06:02:16",1
"21/03/27","06:20",0.0,3.9,91.1,1017.5,299.6,1.3,1.8,323.1,0.00,2.6,130.0,"06:13:04",1
"21/03/27","06:30",0.0,3.8,91.4,1017.5,288.9,2.0,2.2,294.7,0.00,2.6,130.0,"06:24:40",1
"21/03/27","06:40",0.0,4.1,91.6,1017.5,286.9,1.7,2.2,304.9,0.00,2.9,130.0,"06:36:08",1
"21/03/27","06:50",0.0,4.4,91.7,1017.3,300.0,2.2,3.7,319.5,0.01,3.2,130.0,"06:46:16",1
"21/03/27","07:00",0.0,4.8,91.8,1017.5,313.6,1.6,2.7,326.8,0.02,3.6,130.0,"06:51:04",1
"21/03/27","07:10",0.0,5.4,91.8,1017.5,288.2,1.8,2.2,281.2,0.03,4.2,130.0,"07:02:16",1
"21/03/27","07:20",0.0,6.3,91.8,1017.8,294.9,1.6,2.9,324.1,0.05,5.1,130.0,"07:17:04",1
"21/03/27","07:30",0.0,7.2,91.2,1017.8,300.9,1.3,2.7,262.9,0.07,5.9,130.0,"07:22:50",1
"21/03/27","07:40",0.0,7.9,90.7,1018.0,333.6,1.1,2.2,334.2,0.09,6.5,130.0,"07:36:48",1
"21/03/27","07:50",0.0,8.9,89.6,1018.5,318.2,0.7,1.4,338.9,0.12,7.3,130.0,"07:42:08",1
"21/03/27","08:00",0.0,9.2,88.5,1018.7,333.9,0.8,1.7,337.5,0.14,7.4,130.0,"07:58:48",1
"21/03/27","08:10",0.0,9.8,86.8,1019.0,315.8,1.6,2.5,315.9,0.17,7.7,130.0,"08:08:48",1
"21/03/27","08:20",0.0,10.9,84.4,1019.0,298.8,1.1,2.0,330.1,0.20,8.4,130.0,"08:10:40",1
"21/03/27","08:30",0.0,11.5,79.9,1019.4,283.1,0.6,1.9,349.2,0.24,8.2,130.0,"08:21:28",1
"21/03/27","08:40",0.0,11.5,75.5,1019.0,217.1,1.0,1.9,240.0,0.24,7.4,130.0,"08:38:40",1
"21/03/27","08:50",0.0,11.7,71.8,1018.5,191.8,1.0,2.5,200.6,0.28,6.8,130.0,"08:49:28",1
"21/03/27","09:00",0.0,12.1,69.8,1019.0,202.6,1.1,2.4,148.4,0.30,6.8,130.0,"08:55:28",1
"21/03/27","09:10",0.0,12.9,67.8,1019.2,203.1,1.0,2.1,175.3,0.36,7.1,130.0,"09:06:40",1
"21/03/27","09:20",0.0,13.1,66.7,1019.2,168.4,1.3,2.8,132.0,0.35,7.1,130.0,"09:18:00",1
"21/03/27","09:30",0.0,13.4,64.2,1019.0,302.8,0.7,1.9,138.2,0.35,6.8,130.0,"09:26:48",1
"21/03/27","09:40",0.0,13.9,61.9,1019.0,287.6,0.7,1.7,337.0,0.36,6.8,130.0,"09:30:16",1
"21/03/27","09:50",0.0,14.0,60.5,1018.5,245.6,1.0,2.1,228.7,0.39,6.5,130.0,"09:47:12",1
"21/03/27","10:00",0.0,14.5,58.1,1018.5,212.2,1.0,2.1,172.9,0.41,6.4,130.0,"09:54:56",1
"21/03/27","10:10",0.0,15.2,55.5,1018.5,254.1,0.7,2.4,240.4,0.44,6.4,130.0,"10:05:04",1
"21/03/27","10:20",0.0,15.4,52.6,1018.2,220.5,1.5,2.9,229.8,0.48,5.8,130.0,"10:18:48",1
"21/03/27","10:30",0.0,15.8,51.6,1018.2,202.2,1.5,3.1,118.1,0.47,5.9,130.0,"10:29:04",1
"21/03/27","10:40",0.0,16.0,49.1,1017.8,270.0,1.6,3.2,334.6,0.49,5.4,130.0,"10:36:48",1
"21/03/27","10:50",0.0,16.8,48.6,1017.5,286.0,0.7,2.1,234.9,0.48,6.0,130.0,"10:42:24",1
"21/03/27","11:00",0.0,16.8,49.1,1017.8,248.3,1.2,3.1,234.7,0.43,6.1,130.0,"10:53:44",1
"21/03/27","11:10",0.0,17.4,48.1,1017.5,160.5,1.2,4.1,127.8,0.57,6.4,130.0,"11:08:56",1
"21/03/27","11:20",0.0,17.6,46.3,1017.1,184.4,1.5,3.1,185.1,0.55,6.0,130.0,"11:15:04",1
"21/03/27","11:30",0.0,17.6,47.0,1016.8,141.4,1.7,4.1,130.6,0.55,6.2,130.0,"11:24:16",1
"21/03/27","11:40",0.0,18.2,46.4,1017.1,97.5,1.2,4.5,113.6,0.61,6.6,130.0,"11:31:20",1
"21/03/27","11:50",0.0,18.5,45.4,1017.1,182.2,1.8,3.6,176.0,0.60,6.5,130.0,"11:41:52",1
"21/03/27","12:00",0.0,18.9,46.0,1016.8,114.5,1.3,3.1,163.3,0.59,7.1,130.0,"11:58:42",1
"21/03/27","12:10",0.0,19.3,44.5,1016.4,170.6,1.3,2.8,114.8,0.61,7.0,130.0,"12:05:44",1
"21/03/27","12:20",0.0,19.7,45.1,1015.9,187.7,1.3,3.7,145.0,0.59,7.5,130.0,"12:13:44",1
"21/03/27","12:30",0.0,19.5,45.1,1015.4,145.5,2.2,6.3,120.7,0.61,7.3,130.0,"12:27:04",1
"21/03/27","12:40",0.0,20.0,44.7,1015.6,176.8,2.6,6.0,126.1,0.61,7.7,130.0,"12:31:20",1
"21/03/27","12:50",0.0,19.8,43.1,1015.2,139.9,2.7,5.0,122.6,0.58,6.9,130.0,"12:44:48",1
"21/03/27","13:00",0.0,20.0,41.7,1015.9,177.8,2.7,4.0,126.0,0.56,6.6,130.0,"12:54:00",1
"21/03/27","13:10",0.0,20.8,38.7,1015.4,200.9,1.3,2.9,209.4,0.60,6.3,130.0,"13:00:40",1
"21/03/27","13:20",0.0,20.5,37.7,1015.2,141.2,2.3,5.1,127.3,0.55,5.6,130.0,"13:14:16",1
"21/03/27","13:30",0.0,21.1,38.7,1014.7,155.5,1.8,3.6,111.8,0.55,6.5,130.0,"13:21:44",1
"21/03/27","13:40",0.0,21.0,37.8,1014.7,156.5,2.1,4.4,139.7,0.50,6.1,130.0,"13:34:32",1
"21/03/27","13:50",0.0,20.9,35.2,1014.0,164.4,2.1,5.9,126.3,0.46,5.0,130.0,"13:40:02",1
"21/03/27","14:00",0.0,20.9,37.5,1014.2,132.2,2.3,6.0,123.4,0.51,5.9,130.0,"13:52:24",1
"21/03/27","14:10",0.0,21.5,37.5,1013.8,185.5,2.2,4.0,157.8,0.49,6.4,130.0,"14:00:24",1
"21/03/27","14:20",0.0,21.3,38.1,1013.8,189.1,1.7,5.1,201.9,0.35,6.5,130.0,"14:13:44",1
"21/03/27","14:30",0.0,21.2,39.3,1013.8,170.9,1.6,3.4,159.2,0.35,6.9,130.0,"14:22:08",1
"21/03/27","14:40",0.0,21.1,40.3,1013.3,220.7,1.7,4.7,123.2,0.23,7.1,130.0,"14:39:36",1
"21/03/27","14:50",0.0,21.0,43.3,1013.3,108.3,2.2,5.6,116.2,0.41,8.1,130.0,"14:49:44",1
"21/03/27","15:00",0.0,21.0,44.4,1013.0,89.5,1.7,3.7,120.5,0.37,8.5,130.0,"14:59:20",1
"21/03/27","15:10",0.0,20.7,45.8,1012.8,114.8,3.5,6.5,120.0,0.37,8.7,130.0,"15:07:28",1
"21/03/27","15:20",0.0,20.7,45.9,1013.0,115.4,3.2,6.7,114.9,0.36,8.7,130.0,"15:15:04",1
"21/03/27","15:30",0.0,20.5,46.5,1013.0,100.8,2.5,4.8,115.4,0.24,8.7,130.0,"15:28:00",1
"21/03/27","15:40",0.0,20.4,48.4,1012.6,104.6,2.5,4.8,73.7,0.26,9.2,130.0,"15:38:40",1
"21/03/27","15:50",0.0,20.4,49.0,1012.8,96.0,2.8,6.0,111.8,0.32,9.4,130.0,"15:40:32",1
"21/03/27","16:00",0.0,20.3,50.0,1012.6,95.5,2.5,4.9,125.8,0.27,9.6,130.0,"15:54:56",1
"21/03/27","16:10",0.0,20.2,50.2,1012.6,88.9,1.8,3.7,70.8,0.23,9.6,130.0,"16:04:48",1
"21/03/27","16:20",0.0,20.1,51.0,1012.8,93.6,2.3,5.6,116.1,0.20,9.7,130.0,"16:17:28",1
"21/03/27","16:30",0.0,19.9,50.6,1012.6,88.3,2.1,3.5,92.6,0.15,9.4,130.0,"16:25:12",1
"21/03/27","16:40",0.0,19.3,53.4,1012.8,95.5,2.3,5.1,117.2,0.07,9.6,130.0,"16:30:32",1
"21/03/27","16:50",0.0,19.0,55.0,1012.6,102.9,2.5,4.7,104.6,0.09,9.8,130.0,"16:49:36",1
"21/03/27","17:00",0.0,18.6,56.7,1012.8,84.9,2.6,5.9,97.7,0.09,9.9,130.0,"16:54:00",1
"21/03/27","17:10",0.0,18.5,57.9,1012.8,72.3,1.8,4.5,78.3,0.06,10.1,130.0,"17:00:48",1
"21/03/27","17:20",0.0,18.0,59.3,1013.0,86.8,2.3,5.0,111.9,0.05,10.0,130.0,"17:16:00",1
"21/03/27","17:30",0.0,18.0,60.2,1013.3,85.7,2.1,3.9,108.8,0.05,10.2,130.0,"17:29:36",1
"21/03/27","17:40",0.0,17.7,60.9,1013.0,92.5,2.5,6.7,105.9,0.03,10.1,130.0,"17:34:00",1
"21/03/27","17:50",0.0,17.5,62.0,1013.3,100.1,1.8,4.3,111.9,0.02,10.2,130.0,"17:48:48",1
"21/03/27","18:00",0.0,17.4,62.4,1013.5,100.2,2.5,5.7,124.0,0.01,10.2,130.0,"17:56:16",1
"21/03/27","18:10",0.0,17.1,63.3,1013.8,104.9,2.8,4.9,116.1,0.00,10.1,130.0,"18:00:08",1
"21/03/27","18:20",0.0,16.9,63.9,1013.8,107.4,3.0,5.2,120.3,0.00,10.1,130.0,"18:19:04",1
"21/03/27","18:30",0.0,16.8,64.6,1013.8,99.4,2.7,5.5,107.4,0.00,10.1,130.0,"18:20:40",1
"21/03/27","18:40",0.0,16.6,65.4,1014.0,111.4,2.3,5.7,114.3,0.00,10.1,130.0,"18:33:04",1
"21/03/27","18:50",0.0,16.5,65.9,1014.0,110.2,2.2,4.7,117.4,0.00,10.2,130.0,"18:44:56",1
"21/03/27","19:00",0.0,16.4,66.5,1013.8,101.3,2.3,4.1,112.2,0.00,10.2,130.0,"18:58:56",1
"21/03/27","19:10",0.0,16.3,67.0,1014.2,97.9,1.8,4.0,122.5,0.00,10.2,130.0,"19:01:44",1
"21/03/27","19:20",0.0,16.1,67.7,1014.0,109.3,2.0,4.2,119.6,0.00,10.2,130.0,"19:15:44",1
"21/03/27","19:30",0.0,16.0,68.1,1014.0,103.8,1.8,3.9,118.5,0.00,10.2,130.0,"19:28:40",1
"21/03/27","19:40",0.0,15.9,68.2,1014.2,104.3,1.8,3.7,98.6,0.00,10.1,130.0,"19:33:04",1
"21/03/27","19:50",0.0,15.8,68.4,1014.2,98.6,1.5,3.1,114.7,0.00,10.0,130.0,"19:46:08",1
"21/03/27","20:00",0.0,15.8,68.3,1014.0,102.3,1.5,3.4,110.8,0.00,10.0,130.0,"19:52:16",1
"21/03/27","20:10",0.0,15.8,68.2,1014.2,105.4,1.6,2.8,128.6,0.00,10.0,130.0,"20:00:32",1
"21/03/27","20:20",0.0,15.7,68.2,1014.5,116.7,1.5,3.2,99.7,0.00,9.9,130.0,"20:16:56",1
"21/03/27","20:30",0.0,15.6,68.3,1014.5,94.1,1.2,2.0,124.1,0.00,9.8,130.0,"20:21:12",1
"21/03/27","20:40",0.0,15.5,68.6,1014.5,85.8,0.8,3.3,144.9,0.00,9.8,130.0,"20:37:36",1
"21/03/27","20:50",0.0,15.4,69.0,1014.7,65.2,1.0,2.9,95.8,0.00,9.8,130.0,"20:48:32",1
"21/03/27","21:00",0.0,15.3,69.4,1014.5,61.1,0.7,1.7,131.5,0.00,9.8,130.0,"20:51:28",1
"21/03/27","21:10",0.0,15.1,70.0,1014.5,12.9,0.7,1.7,111.3,0.00,9.7,130.0,"21:01:04",1
"21/03/27","21:20",0.0,15.2,71.2,1014.7,108.7,1.2,2.6,113.3,0.00,10.1,130.0,"21:18:56",1
"21/03/27","21:30",0.0,15.2,71.8,1015.4,60.2,0.7,1.8,100.9,0.00,10.2,130.0,"21:27:28",1
"21/03/27","21:40",0.0,15.2,72.8,1014.9,54.3,0.7,2.1,108.6,0.00,10.4,130.0,"21:36:24",1
"21/03/27","21:50",0.0,14.9,73.5,1014.9,117.5,0.6,1.7,123.2,0.00,10.3,130.0,"21:43:44",1
"21/03/27","22:00",0.0,14.5,74.3,1014.7,197.9,0.2,0.9,148.5,0.00,10.0,130.0,"21:58:16",1
"21/03/27","22:10",0.0,14.3,75.1,1014.9,197.9,0.1,0.8,134.9,0.00,10.0,130.0,"22:00:08",1
"21/03/27","22:20",0.0,14.1,76.2,1015.2,274.1,0.3,0.8,288.5,0.00,10.0,130.0,"22:14:56",1
"21/03/27","22:30",0.0,14.2,77.1,1014.7,333.6,0.3,1.1,100.4,0.00,10.3,130.0,"22:29:36",1
"21/03/27","22:40",0.0,14.6,78.0,1014.7,93.4,0.8,2.2,114.1,0.00,10.9,130.0,"22:37:20",1
"21/03/27","22:50",0.0,14.6,78.4,1014.2,88.1,0.7,1.7,108.0,0.00,10.9,130.0,"22:41:52",1
"21/03/27","23:00",0.0,14.7,78.4,1013.8,88.5,1.0,2.1,114.7,0.00,11.0,130.0,"22:54:16",1
"21/03/27","23:10",0.0,14.9,78.4,1014.0,120.9,1.7,3.6,124.3,0.00,11.2,130.0,"23:06:08",1
"21/03/27","23:20",0.0,14.9,78.2,1013.8,132.6,2.0,4.8,137.3,0.00,11.2,130.0,"23:10:02",1
"21/03/27","23:30",0.0,14.7,77.5,1014.0,218.9,1.3,4.0,134.9,0.00,10.9,130.0,"23:20:08",1
"21/03/27","23:40",0.0,14.3,77.2,1013.8,292.6,1.2,1.7,319.3,0.00,10.4,130.0,"23:36:08",1
"21/03/27","23:50",0.0,14.0,77.6,1013.8,285.6,1.0,1.6,309.2,0.00,10.2,130.0,"23:40:48",1
"21/03/27","24:00",0.0,13.8,78.5,1013.0,316.2,1.1,1.7,343.4,0.00,10.2,130.0,"23:58:08",1
